This demonstration page uses our WeatherBlox Daily Observations layout. Learn more.

Left ArrowRight Arrow

34.74481, -87.66753

Hourly Observations for December 24, 2019

Temp ( °F °C ) Dew Point ( °F °C ) Humidity (%) Winds ( mph kmh ) Pressure ( in mb ) Visibility ( mi km ) Precip ( " mm )
12:53 am 00:53 Clear 52 11.1 41 5 66 66 Calm 30.01 1016 10 16 0.00 0.00
1:53 am 01:53 Clear 48 8.9 42 5.6 80 80 Calm 30.01 1016 10 16 0.00 0.00
2:53 am 02:53 Clear 46 7.8 43 6.1 89 89 Calm 30.02 1017 10 16 0.00 0.00
3:53 am 03:53 Clear 44 6.7 41 5 89 89 NW 3 6 30.02 1017 10 16 0.00 0.00
4:53 am 04:53 Clear 45 7.2 40 4.4 83 83 Calm 30.02 1017 10 16 0.00 0.00
5:53 am 05:53 Clear 43 6.1 40 4.4 89 89 Calm 30.03 1017 10 16 0.00 0.00
6:53 am 06:53 Clear 44 6.7 40 4.4 85 85 Calm 30.04 1017 10 16 0.00 0.00
7:53 am 07:53 Sunny 45 7.2 41 5 86 86 Calm 30.06 1018 10 16 0.00 0.00
8:53 am 08:53 Sunny 52 11.1 43 6.1 72 72 Calm 30.07 1018 10 16 0.00 0.00
9:53 am 09:53 Sunny 58 14.4 43 6.1 58 58 Calm 30.09 1019 10 16 0.00 0.00
10:53 am 10:53 Sunny 60 15.6 44 6.7 56 56 Calm 30.07 1018 10 16 0.00 0.00
11:53 am 11:53 Sunny 64 17.8 47 8.3 54 54 Calm 30.04 1017 10 16 0.00 0.00
12:53 pm 12:53 Sunny 67 19.4 48 8.9 51 51 E 6 9 30.01 1016 10 16 0.00 0.00
1:53 pm 13:53 Sunny 69 20.6 49 9.4 49 49 Calm 30.00 1016 10 16 0.00 0.00
2:53 pm 14:53 Sunny 69 20.6 49 9.4 49 49 ENE 3 6 29.99 1016 10 16 0.00 0.00
3:53 pm 15:53 Sunny 65 18.3 51 10.6 61 61 SSE 3 6 29.99 1016 10 16 0.00 0.00
4:53 pm 16:53 Clear 64 17.8 50 10 60 60 Calm 30.00 1016 10 16 0.00 0.00
5:53 pm 17:53 Clear 58 14.4 51 10.6 78 78 Calm 30.02 1017 10 16 0.00 0.00
6:53 pm 18:53 Clear 54 12.2 49 9.4 83 83 Calm 30.02 1017 10 16 0.00 0.00
7:53 pm 19:53 Clear 52 11.1 48 8.9 86 86 Calm 30.03 1017 10 16 0.00 0.00
8:53 pm 20:53 Clear 50 10 47 8.3 89 89 Calm 30.03 1017 10 16 0.00 0.00
9:53 pm 21:53 Clear 47 8.3 45 7.2 93 93 Calm 30.03 1017 10 16 0.00 0.00
10:33 pm 22:33 Clear with Mist and Fog 47 8.3 44 6.7 90 90 Calm 30.05 1018 2 2 0.00 0.00
10:42 pm 22:42 Clear with Mist and Fog 46 7.8 44 6.7 93 93 Calm 30.05 1018 1 1 0.00 0.00
10:46 pm 22:46 Clear with Mist and Fog 46 7.8 44 6.7 93 93 Calm 30.05 1018 2 3 0.00 0.00
10:53 pm 22:53 Mostly Clear with Mist and Fog 47 8.3 45 7.2 93 93 Calm 30.03 1017 1 2 0.00 0.00
11:01 pm 23:01 Clear with Mist and Fog 47 8.3 44 6.7 90 90 Calm 30.04 1017 3 5 0.00 0.00
11:22 pm 23:22 Clear with Mist and Fog 48 8.9 45 7.2 89 89 Calm 30.04 1017 2 3 0.00 0.00
11:31 pm 23:31 Clear with Mist and Fog 47 8.3 45 7.2 93 93 Calm 30.04 1017 1 1 0.00 0.00
11:36 pm 23:36 Clear with Mist and Fog 47 8.3 44 6.7 90 90 Calm 30.04 1017 2 3 0.00 0.00
11:44 pm 23:44 Clear with Mist and Fog 47 8.3 44 6.7 90 90 Calm 30.04 1017 6 10 0.00 0.00
11:53 pm 23:53 Clear 47 8.3 45 7.2 93 93 Calm 30.02 1017 8 13 0.00 0.00

Powered by AerisWeather